Change the Weather History Date:

Saturday, December 4, 2010

  Actual Average Record
Temperature  
Mean Temperature 28 °F -  
Max Temperature 33 °F 43 °F 68 °F (2001)
Min Temperature 23 °F 23 °F 5 °F (2005)
Degree Days  
Heating Degree Days 36    
Moisture  
Dew Point 20 °F    
Average Humidity 68    
Maximum Humidity 80    
Minimum Humidity 55    
Precipitation  
Precipitation 0.00 in - - ()
Sea Level Pressure  
Sea Level Pressure 30.29 in    
Wind  
Wind Speed 24 mph (NNW)    
Max Wind Speed 36 mph    
Max Gust Speed 44 mph    
Visibility 10 miles    
Events      
Averages and records for this station are not official NWS values.
T = Trace of Precipitation, MM = Missing Value Source: NWS Daily Summary

Daily Weather History Graph

Daily Weather History Graph

Search for Another Location

Airport or City:

Trip Planner

Search our weather history database for the weather conditions in past years. The results will help you decide how hot, cold, wet, or windy it might be!

Date:

Astronomy

Dec. 04, 2010 Rise Set
Actual Time 7:33 AM CST 5:00 PM CST
Civil Twilight 7:03 AM CST 5:31 PM CST
Nautical Twilight 6:29 AM CST 6:05 PM CST
Astronomical Twilight 5:56 AM CST 6:38 PM CST
Moon 6:31 AM CST (12/4) 4:04 PM CST (12/4)
Length of Visible Light 10h 28m
Length of Day
9h 27m
Waning Crescent, 1% of the Moon is Illuminated
Dec 4
Waning Crescent
Dec 5
New
Dec 13
First Quarter
Dec 21
Full
Dec 27
Last Quarter

Hourly Weather History & Observations

Time (CST) Temp. Windchill Dew Point Humidity Pressure Visibility Wind Dir Wind Speed Gust Speed Precip Events Conditions
12:10 AM 32.4 °F 18.4 °F 27.0 °F 80% 30.04 in 10.0 mi NNW 28.8 mph 32.2 mph N/A   Clear
12:30 AM 32.4 °F 17.0 °F 26.4 °F 79% 30.05 in 10.0 mi NNW 35.7 mph 43.7 mph N/A   Scattered Clouds
12:50 AM 32.9 °F 18.9 °F 26.2 °F 76% 30.06 in 10.0 mi NNW 29.9 mph 39.1 mph N/A   Mostly Cloudy
1:10 AM 32.9 °F 18.9 °F 25.7 °F 75% 30.08 in 10.0 mi NNW 29.9 mph 39.1 mph N/A   Overcast
1:30 AM 33.1 °F 19.6 °F 25.7 °F 74% 30.09 in 10.0 mi North 27.6 mph 34.5 mph N/A   Overcast
1:50 AM 33.1 °F 20.1 °F 25.5 °F 74% 30.09 in 10.0 mi NNW 25.3 mph 40.3 mph N/A   Overcast
2:10 AM 32.9 °F 19.3 °F 25.0 °F 73% 30.10 in 10.0 mi NNW 27.6 mph 39.1 mph N/A   Overcast
2:30 AM 32.9 °F 19.3 °F 25.3 °F 74% 30.11 in 10.0 mi NNW 27.6 mph 33.4 mph N/A   Overcast
2:50 AM 32.9 °F 21.6 °F 25.3 °F 74% 30.12 in 10.0 mi NNW 18.4 mph 24.2 mph N/A   Overcast
3:10 AM 32.5 °F 19.6 °F 24.8 °F 73% 30.13 in 10.0 mi NNW 24.2 mph 33.4 mph N/A   Overcast
3:30 AM 32.2 °F 20.4 °F 25.3 °F 76% 30.14 in 10.0 mi NNW 19.6 mph 31.1 mph N/A   Overcast
3:50 AM 32.0 °F 20.1 °F 24.8 °F 75% 30.15 in 10.0 mi NNW 19.6 mph 23.0 mph N/A   Mostly Cloudy
4:10 AM 30.6 °F 18.6 °F 24.8 °F 79% 30.16 in 10.0 mi NNW 18.4 mph 23.0 mph N/A   Mostly Cloudy
4:30 AM 31.1 °F 16.6 °F 23.4 °F 73% 30.17 in 10.0 mi NNW 28.8 mph 33.4 mph N/A   Overcast
4:50 AM 30.9 °F 15.9 °F 22.5 °F 71% 30.18 in 10.0 mi NNW 31.1 mph 39.1 mph N/A   Overcast
5:10 AM 30.7 °F 15.7 °F 22.1 °F 70% 30.19 in 10.0 mi NNW 31.1 mph 41.4 mph N/A   Overcast
5:30 AM 30.7 °F 16.4 °F 22.5 °F 71% 30.20 in 10.0 mi NNW 27.6 mph 40.3 mph N/A   Overcast
5:50 AM 30.6 °F 15.9 °F 22.5 °F 72% 30.20 in 10.0 mi NNW 28.8 mph 42.6 mph N/A   Overcast
6:10 AM 30.2 °F 14.7 °F 22.5 °F 73% 30.22 in 10.0 mi NNW 32.2 mph 40.3 mph N/A   Overcast
6:30 AM 29.8 °F 15.2 °F 22.1 °F 73% 30.23 in 10.0 mi North 27.6 mph 35.7 mph N/A   Overcast
6:50 AM 29.8 °F 16.0 °F 21.9 °F 72% 30.25 in 10.0 mi North 24.2 mph 33.4 mph N/A   Overcast
7:10 AM 29.3 °F 15.6 °F 21.7 °F 73% 30.26 in 10.0 mi North 23.0 mph 32.2 mph N/A   Overcast
7:30 AM 29.1 °F 15.7 °F 21.2 °F 72% 30.27 in 10.0 mi North 21.9 mph 32.2 mph N/A   Overcast
7:50 AM 28.4 °F 13.3 °F 20.7 °F 73% 30.28 in 10.0 mi North 27.6 mph 33.4 mph N/A   Overcast
8:10 AM 27.3 °F 13.6 °F 19.6 °F 73% 30.30 in 10.0 mi North 20.7 mph 27.6 mph N/A   Mostly Cloudy
8:30 AM 26.2 °F 11.9 °F 18.7 °F 73% 30.32 in 10.0 mi North 21.9 mph 26.5 mph N/A   Scattered Clouds
8:50 AM 25.3 °F 11.4 °F 17.1 °F 71% 30.33 in 10.0 mi North 19.6 mph 33.4 mph N/A   Clear
9:10 AM 25.0 °F 10.6 °F 16.2 °F 69% 30.35 in 10.0 mi North 20.7 mph 29.9 mph N/A   Clear
9:30 AM 25.2 °F 9.5 °F 15.6 °F 67% 30.36 in 10.0 mi North 25.3 mph 28.8 mph N/A   Clear
9:50 AM 24.8 °F 9.3 °F 15.8 °F 69% 30.37 in 10.0 mi North 24.2 mph 32.2 mph N/A   Clear
10:10 AM 26.2 °F 11.2 °F 15.8 °F 65% 30.39 in 10.0 mi North 24.2 mph 29.9 mph N/A   Clear
10:30 AM 27.0 °F 12.2 °F 15.8 °F 63% 30.39 in 10.0 mi NNW 24.2 mph 29.9 mph N/A   Clear
10:50 AM 27.5 °F 14.2 °F 16.0 °F 62% 30.39 in 10.0 mi North 19.6 mph 28.8 mph N/A   Clear
11:10 AM 29.5 °F 15.8 °F 17.1 °F 60% 30.39 in 10.0 mi NNW 23.0 mph 29.9 mph N/A   Clear
11:30 AM 30.2 °F 17.8 °F 17.8 °F 60% 30.40 in 10.0 mi NNW 19.6 mph 25.3 mph N/A   Scattered Clouds
11:50 AM 30.7 °F 17.2 °F 18.1 °F 60% 30.39 in 10.0 mi North 24.2 mph 31.1 mph N/A   Scattered Clouds
12:10 PM 30.7 °F 18.5 °F 18.5 °F 60% 30.38 in 10.0 mi NNW 19.6 mph 24.2 mph N/A   Mostly Cloudy
12:30 PM 31.3 °F 19.2 °F 18.5 °F 59% 30.38 in 10.0 mi NNW 19.6 mph - N/A   Overcast
12:50 PM 31.5 °F 20.1 °F 18.3 °F 58% 30.38 in 10.0 mi NNW 17.3 mph - N/A   Overcast
1:10 PM 30.7 °F 18.5 °F 17.8 °F 59% 30.39 in 10.0 mi NNW 19.6 mph - N/A   Overcast
1:30 PM 30.7 °F 18.8 °F 17.6 °F 58% 30.39 in 10.0 mi NNW 18.4 mph 25.3 mph N/A   Overcast
1:50 PM 30.6 °F 19.4 °F 17.6 °F 59% 30.39 in 10.0 mi NNW 16.1 mph - N/A   Overcast
2:10 PM 30.9 °F 18.7 °F 17.6 °F 58% 30.39 in 10.0 mi NNW 19.6 mph - N/A   Overcast
2:30 PM 31.1 °F 19.3 °F 18.0 °F 58% 30.39 in 10.0 mi NNW 18.4 mph 23.0 mph N/A   Overcast
2:50 PM 32.0 °F 21.2 °F 17.6 °F 55% 30.39 in 10.0 mi NNW 16.1 mph - N/A   Overcast
3:10 PM 31.5 °F 20.5 °F 18.1 °F 58% 30.39 in 10.0 mi North 16.1 mph - N/A   Overcast
3:30 PM 30.9 °F 19.4 °F 17.6 °F 58% 30.40 in 10.0 mi NNW 17.3 mph - N/A   Mostly Cloudy
3:50 PM 29.8 °F 19.3 °F 17.6 °F 60% 30.40 in 10.0 mi North 13.8 mph - N/A   Clear
4:10 PM 29.7 °F 19.6 °F 17.6 °F 61% 30.41 in 10.0 mi North 12.7 mph - N/A   Clear
4:30 PM 29.8 °F 19.8 °F 17.6 °F 60% 30.41 in 10.0 mi North 12.7 mph - N/A   Clear
4:50 PM 28.4 °F 18.0 °F 17.2 °F 63% 30.41 in 10.0 mi North 12.7 mph - N/A   Clear
5:10 PM 26.8 °F 17.7 °F 16.7 °F 66% 30.42 in 10.0 mi North 9.2 mph - N/A   Clear
5:30 PM 25.3 °F 16.0 °F 16.5 °F 69% 30.42 in 10.0 mi NNW 9.2 mph - N/A   Clear
5:50 PM 24.8 °F 15.3 °F 16.5 °F 71% 30.43 in 10.0 mi NNW 9.2 mph - N/A   Clear
6:10 PM 24.3 °F 14.6 °F 16.3 °F 72% 30.44 in 10.0 mi NNW 9.2 mph - N/A   Clear
6:30 PM 23.0 °F 13.1 °F 15.8 °F 74% 30.44 in 10.0 mi NNW 9.2 mph - N/A   Clear
6:50 PM 20.1 °F 9.5 °F 14.9 °F 80% 30.45 in 10.0 mi North 9.2 mph - N/A   Clear
7:10 PM 19.2 °F 8.4 °F 14.4 °F 81% 30.45 in 10.0 mi North 9.2 mph - N/A   Clear
7:30 PM 23.0 °F 13.1 °F 15.8 °F 74% 30.46 in 10.0 mi North 9.2 mph - N/A   Clear
7:50 PM 21.2 °F 10.9 °F 15.4 °F 78% 30.46 in 10.0 mi North 9.2 mph - N/A   Clear
8:10 PM 17.6 °F 7.3 °F 13.8 °F 85% 30.46 in 10.0 mi North 8.1 mph - N/A   Clear
8:30 PM 20.1 °F 9.5 °F 15.3 °F 81% 30.47 in 10.0 mi North 9.2 mph - N/A   Clear
8:50 PM 19.2 °F 8.4 °F 14.9 °F 83% 30.47 in 10.0 mi North 9.2 mph - N/A   Clear
9:10 PM 18.5 °F 8.4 °F 14.9 °F 86% 30.47 in 10.0 mi NNW 8.1 mph - N/A   Clear
9:30 PM 19.4 °F 10.4 °F 15.1 °F 83% 30.47 in 10.0 mi NNW 6.9 mph - N/A   Clear
9:50 PM 18.5 °F 7.5 °F 14.7 °F 85% 30.47 in 10.0 mi North 9.2 mph - N/A   Clear
10:10 PM 19.4 °F 7.2 °F 15.3 °F 84% 30.47 in 10.0 mi North 11.5 mph - N/A   Clear
10:30 PM 20.5 °F 11.7 °F 15.1 °F 80% 30.47 in 10.0 mi NNE 6.9 mph - N/A   Clear
10:50 PM 19.6 °F 13.0 °F 14.5 °F 81% 30.47 in 10.0 mi NNE 4.6 mph - N/A   Clear
11:10 PM 18.5 °F 11.7 °F 14.4 °F 84% 30.47 in 10.0 mi North 4.6 mph - N/A   Clear
11:30 PM 14.9 °F 7.5 °F 11.5 °F 86% 30.48 in 10.0 mi NNW 4.6 mph - N/A   Clear
11:50 PM 14.9 °F 9.2 °F 12.0 °F 88% 30.48 in 10.0 mi NW 3.5 mph - N/A   Clear